Flag for Netherlands

Past Weather in Enschede, Netherlands — Yesterday and Last 2 Weeks

Now
52 °F

Cool.


Feels Like: 51 °F
Forecast: 66 / 49 °F
Wind: 3 mph from West

Location: Deelen

Current Time: Jul 7, 2020 at 1:16:05 am

Latest Report: Jul 7, 2020 at 12:55 am


Visibility: N/A

Pressure: 30.15 "Hg

Humidity: 88%

Dew Point: 48 °F

Location of EnschedeLocation

Past Weather in Enschede — Graph

°F

Enschede Temperature Yesterday

Maximum temperature yesterday: 64 °F (at 4:25 pm)
Minimum temperature yesterday: 54 °F (at 1:55 pm)
Average temperature yesterday: 58 °F

High & Low Weather Summary for the Past Weeks

 TemperatureHumidityPressure
High88 °F (Jun 26, 3:55 pm)100% (Jun 27, 12:25 am)30.30 "Hg (Jun 27, 12:25 am)
Low50 °F (Jun 23, 2:55 am)27% (Jun 26, 3:55 pm)29.68 "Hg (Jul 1, 4:55 am)
Average66 °F72%29.94 "Hg
* Reported Jun 21 11:25 pm — Jul 6 11:55 pm, Enschede. Weather by CustomWeather, © 2020

Note: Actual official high and low records may vary slightly from our data, if they occured in-between our weather recording intervals... More about our weather records

Enschede Weather History for the Previous 24 Hours

Scroll right to see more
 ConditionsComfort  
Time TempWeatherWind HumidityBarometerVisibility
11:55 pm
Mon, Jul 6
54 °FPassing clouds.6 mph88%30.15 "HgN/A
11:25 pm54 °FPartly cloudy.5 mph88%30.15 "HgN/A
10:55 pm54 °FPassing clouds.5 mph88%30.15 "HgN/A
10:25 pm54 °FCool.3 mph88%30.12 "HgN/A
9:55 pm55 °FPassing clouds.6 mph82%30.12 "HgN/A
9:25 pm59 °FScattered clouds.8 mph72%30.12 "HgN/A
8:55 pm59 °FPartly sunny.7 mph77%30.09 "HgN/A
8:25 pm59 °FPartly sunny.9 mph72%30.09 "HgN/A
7:55 pm59 °FPartly sunny.10 mph82%30.09 "HgN/A
7:25 pm59 °FBroken clouds.10 mph82%30.09 "HgN/A
6:55 pm59 °FPassing clouds.13 mph82%30.07 "HgN/A
6:25 pm57 °FPartly sunny.10 mph88%30.07 "HgN/A
5:55 pm61 °FLight rain. Broken clouds.13 mph72%30.07 "HgN/A
5:25 pm61 °FLight rain. Broken clouds.16 mph68%30.07 "HgN/A
4:55 pm63 °FPartly sunny.16 mph64%30.04 "HgN/A
4:25 pm64 °FBroken clouds.15 mph64%30.04 "HgN/A
3:55 pm59 °FRain. Broken clouds.15 mph77%30.01 "HgN/A
2:55 pm63 °FScattered clouds.17 mph73%30.01 "HgN/A
2:25 pm57 °FScattered clouds.9 mph94%30.01 "HgN/A
1:55 pm54 °FLight rain. Partly sunny.22 mph88%30.01 "HgN/A
1:25 pm61 °FBroken clouds.9 mph88%29.98 "HgN/A
12:55 pm59 °FBroken clouds.9 mph88%29.95 "HgN/A
12:25 pm55 °FLight rain. Broken clouds.10 mph94%29.95 "HgN/A
11:55 am55 °FBroken clouds.20 mph82%29.95 "HgN/A
11:25 am61 °FBroken clouds.14 mph68%29.92 "HgN/A
10:55 am63 °FBroken clouds.14 mph68%29.92 "HgN/A
10:25 am61 °FLight rain. Broken clouds.14 mph77%29.92 "HgN/A
9:55 am57 °FLight rain. Cloudy.16 mph77%29.92 "HgN/A
9:25 am61 °FBroken clouds.16 mph68%29.89 "HgN/A
8:55 am59 °FMostly cloudy.15 mph72%29.89 "HgN/A
8:25 am59 °FOvercast.12 mph72%29.89 "HgN/A
7:55 am59 °FMore clouds than sun.13 mph72%29.86 "HgN/A
7:25 am57 °FPartly sunny.13 mph77%29.86 "HgN/A
6:55 am55 °FPassing clouds.12 mph82%29.86 "HgN/A
6:25 am55 °FBroken clouds.12 mph88%29.86 "HgN/A
5:55 am55 °FBroken clouds.12 mph88%29.83 "HgN/A
5:25 am55 °FBroken clouds.12 mph88%29.83 "HgN/A
4:55 am55 °FCool.12 mph88%29.83 "HgN/A
4:25 am55 °FPassing clouds.12 mph94%29.83 "HgN/A
3:55 am57 °FPassing clouds.12 mph88%29.83 "HgN/A
3:25 am57 °FPassing clouds.12 mph88%29.83 "HgN/A
2:55 am57 °FCool.13 mph88%29.83 "HgN/A
2:25 am57 °FCool.14 mph88%29.83 "HgN/A
1:55 am57 °FPassing clouds.15 mph82%29.83 "HgN/A
1:25 am59 °FCool.16 mph77%29.83 "HgN/A
Weather by CustomWeather, © 2020

See weather overview